Grigor Bayramyan

Recruteur en chef - Ararat
15 Oct 2028
Dimanche
Processus

Personnalité

Adaptabilité (8) Ambition (11) Controverse (15) Loyauté (8) Pression (11) Professionnalisme (13) Sportivité (2) Tempérament (1)

Profil

Style d'entraînement Démocratique
Diplôme Continental B
Détermination 5
Gestion des joueurs 6
Motivation 10
Discipline 8
Satisfaction professionnelle
100%
Fatigue
0%
Rôle Recruteur en chef
Salaire 32.3K p/s
Contrat 14.03.2030

Performance

Comportement Bon
Efficacité de l'entraînement
44%
Développement des joueurs
15%
Prévention des blessures
30%
Mise en place tactique
45%

Événements récents

A participé à une réunion de recrutement 7j
A participé à une réunion de recrutement 14j
A participé à une réunion de recrutement 21j
A participé à une réunion de recrutement 28j
A participé à une réunion de recrutement 35j
A participé à une réunion de recrutement 42j
A participé à une réunion de recrutement 49j
A participé à une réunion de recrutement 56j

Suivi en cours

119
Joueur Club Statut Capacité Confiance Observé Dernière observation Dernier vote
Alejandro Rincon Llaneros Actif 112 / 101 40% 3 29.12.2027 -
Lucas Cano All Boys Actif 103 / 98 40% 4 28.12.2027 -
Santiago Rodríguez Gimnasia y Esgrima Actif 111 / 118 40% 3 28.12.2027 -
Rodrigo Pollero Deportivo Tachira Actif 107 / 119 40% 3 26.12.2027 -
Lisandro Cabrera Maipú Actif 120 / 102 40% 2 26.12.2027 -
Dato Mchedlidze Tskhinvali Actif 90 / 101 40% 1 25.12.2027 -
Tobías Cervera Gimnasia y Esgrima Actif 102 / 113 40% 1 25.12.2027 -
Daniel Barrea Godoy Cruz Actif 116 / 135 40% 4 24.12.2027 -
Santiago Sala Güemes Actif 124 / 105 40% 3 24.12.2027 -
Octavio Bianchi Gimnasia y Esgrima Actif 121 / 119 40% 1 23.12.2027 -
Agustín Gallo Tristán Suárez Actif 120 / 110 40% 3 17.12.2027 -
Sagir Arce Saburtalo Actif 94 / 109 40% 4 11.12.2027 -
Gianluca Pugliese Güemes Actif 119 / 105 40% 4 11.12.2027 -
Sebastián Marfort Racing Actif 89 / 114 40% 1 06.12.2027 -
Lautaro Gordillo Colegiales Actif 115 / 123 40% 3 05.12.2027 -
Renzo Reynaga Patronato Actif 109 / 98 40% 2 05.12.2027 -
Ronaldo Peña Deportivo Lara Actif 112 / 93 40% 4 03.12.2027 -
Franco Ayunta Temperley Actif 117 / 111 40% 4 03.12.2027 -
José Balza Deportivo Tachira Actif 105 / 106 40% 2 02.12.2027 -
Jeriel De Santis Caracas Actif 104 / 114 40% 2 01.12.2027 -
Elías Peralta Lokomotivi Actif 100 / 94 40% 1 01.12.2027 -
Jhonatan Candia Barracas Central Actif 111 / 110 40% 2 30.11.2027 -
Genaro Rossi San Martín SJ Actif 115 / 105 40% 2 30.11.2027 -
Juan David Rueda Alianza Petrolera Actif 129 / 99 40% 2 27.11.2027 -
Rafael Moreno Atletico Venezuela Actif 123 / 128 40% 2 26.11.2027 -
Rodrigo Mosqueira Stjarnan Actif 112 / 102 40% 2 26.11.2027 -
Richard Figueroa Deportivo Lara Actif 127 / 93 40% 1 25.11.2027 -
Álex Arce Independiente Rivadavia Actif 125 / 139 40% 1 23.11.2027 -
Mauricio Márquez Caracas Actif 120 / 101 40% 7 20.11.2027 -
Ronny Maza Aragua Actif 113 / 103 40% 1 20.11.2027 -
José Barreto Quilmes Actif 135 / 118 40% 2 19.11.2027 -
Lorenzo Barrera Agropecuario Argentino Actif 86 / 94 40% 2 19.11.2027 -
Sergio González Racing Actif 134 / 110 40% 2 17.11.2027 -
Favio Cabral Mitre Actif 111 / 108 40% 1 17.11.2027 -
Agustín Lavezzi Quilmes Actif 90 / 103 40% 1 15.11.2027 -
Salomon Ramirez Atletico Venezuela Actif 92 / 107 40% 1 12.11.2027 -
Gustavo Viera Cerro Largo Actif 97 / 115 40% 1 06.11.2027 -
Enzo González Defensores Actif 99 / 111 40% 2 05.11.2027 -
Sebastián Cocimano Nueva Chicago Actif 104 / 117 40% 3 05.11.2027 -
Tornike Mikautadze Tskhinvali Actif 112 / 105 40% 1 28.10.2027 -
Matías Samaniego Talleres Actif 102 / 85 40% 2 27.10.2027 -
César Magallan Estudiantes de Merida Actif 114 / 120 40% 4 22.10.2027 -
Kekuta Manneh Samtredia Actif 104 / 83 40% 1 22.10.2027 -
Nicolás Heiz Maipú Actif 103 / 96 40% 2 21.10.2027 -
Rafael Arace Caracas Actif 127 / 118 40% 2 07.10.2027 -
Alan Bonansea Colón Actif 94 / 102 40% 2 06.10.2027 -
Junior Paredes Trujillanos Actif 95 / 93 40% 1 06.10.2027 -
Juan Mendoza Güemes Actif 86 / 115 40% 1 24.09.2027 -
Adalberto Peñaranda Deportivo Tachira Actif 139 / 99 40% 2 17.09.2027 -
Rodrigo Bogarín Barracas Central Actif 129 / 125 40% 1 11.09.2027 -
Camilo Machado Madryn Actif 115 / 101 40% 1 08.09.2027 -
Tomás Bolzicco Chaco For Ever Actif 81 / 112 40% 1 08.09.2027 -
Rui Costa Port Vale Actif 104 / 122 40% 1 09.08.2027 -
Lorenzo De Leo Renate Actif 92 / 90 40% 1 26.07.2027 -
Giuseppe Panico Foggia Actif 140 / 111 40% 2 19.07.2027 -
Augusto Berrondo Tristán Suárez Actif 125 / 97 40% 1 19.07.2027 -
Andrew Dallas Sambenedettese Actif 83 / 103 40% 1 12.07.2027 -
Patrick Schmidt Tarxien Rainbows Actif 88 / 102 40% 3 22.06.2027 -
Ruslan Apekov Torpedo Moscow Actif 87 / 104 40% 1 01.06.2027 -
Mikhail Ignatov Sochi Actif 136 / 123 40% 1 29.05.2027 -
Thom van Bergen Groningen Actif 108 / 119 40% 1 28.05.2027 -
Damir Céter Hamrun Spartans Actif 105 / 115 40% 2 26.05.2027 -
Martin Sekulić Ural Actif 132 / 102 40% 2 24.05.2027 -
Mômô Fanyé Touré Alashkert Actif 117 / 119 40% 3 22.05.2027 -
Törles Knöll Al-Ta'ee Actif 108 / 117 40% 1 22.05.2027 -
Jonathan Cañete Portuguesa Actif 137 / 105 40% 1 20.05.2027 -
Yakou Meïté Damac Actif 119 / 109 40% 3 17.05.2027 -
Vladislav Sarveli Nizhniy Novgorod Actif 129 / 117 40% 2 15.05.2027 -
Kamran Aliev SKA Khabarovsk Actif 102 / 96 40% 3 11.05.2027 -
Robert Murić Floriana Actif 88 / 86 40% 1 02.05.2027 -
Prince Ibara Al-Njoom Actif 101 / 105 40% 1 02.05.2027 -
David Davidyan Rotor Actif 81 / 116 40% 1 01.05.2027 -
Ekain Orobengoa Real Sociedad Actif 81 / 100 40% 1 30.04.2027 -
Matheus Aiás Noah Actif 105 / 125 40% 2 27.04.2027 -
Georgy Gongadze Ufa Actif 76 / 113 40% 1 23.04.2027 -
Yeangel Montero Naxxar Lions Actif 100 / 93 40% 2 17.04.2027 -
Moussakoye Diallo Stade Malien Actif 123 / 104 40% 1 17.04.2027 -
Alexandr Saplinov Volga Actif 93 / 99 40% 2 16.04.2027 -
Georgy Melkadze Akhmat Grozny Actif 119 / 103 40% 1 15.04.2027 -
Leandro Antunes Al-Riyadh Actif 123 / 115 40% 1 08.04.2027 -
Carlos Guerreño Hajer Actif 84 / 103 40% 3 07.04.2027 -
Indrit Tuci Olimpija Ljubljana Actif 87 / 107 40% 1 07.04.2027 -
Renat Garayev AZAL Actif 121 / 100 40% 3 06.04.2027 -
Artem Poliarus Urartu Actif 108 / 111 41% 1 25.01.2027 -
Kauan Floriana Actif 106 / 106 40% 1 03.01.2027 -
Yilson Mosquera Tarxien Rainbows Actif 97 / 93 40% 1 02.01.2027 -
Vyacheslav Grulev Nizhniy Novgorod Actif 89 / 125 40% 2 31.12.2026 -
Khetag Khosonov Akron Actif 112 / 110 40% 1 31.12.2026 -
François Kamano Sochi Actif 99 / 129 40% 1 21.12.2026 -
Karim El Berkaoui Al-Khaleej Actif 111 / 134 40% 2 19.12.2026 -
Alexey Kashtanov Torpedo Moscow Actif 113 / 119 40% 1 17.12.2026 -
Younes El Bahraoui Al-Taawoun Actif 119 / 113 40% 1 16.12.2026 -
Oumar Gonzalez Al-Ra'ed Actif 106 / 134 40% 1 15.12.2026 -
Artem Sokol Rodina Actif 113 / 98 40% 1 15.12.2026 -
Musa Qurbanlı Qarabag Actif 116 / 102 40% 1 11.12.2026 -
Leandro Lacunza Hibernians Actif 116 / 82 40% 1 08.12.2026 -
Shahriyar Abdullayev Ravan Actif 97 / 110 40% 1 07.12.2026 -
Zoumana Simpara Djoliba Actif 87 / 99 40% 1 02.12.2026 -
Yegor Kortsov Dinamo Brest Actif 116 / 97 40% 1 28.11.2026 -
David Karaev KAMAZ Actif 111 / 92 40% 1 26.11.2026 -
Jáder Valencia Deportes Tolima Actif 133 / 102 40% 1 25.11.2026 -
Rüstəm Əhmədzadə Sumgayit Actif 103 / 118 40% 1 25.11.2026 -
Ilja Safronov Rotor Actif 102 / 96 40% 1 23.11.2026 -
Liam Bennett Cambridge United Actif 121 / 107 40% 1 21.11.2026 -
Cavid Nazarov Khazar Actif 117 / 116 40% 1 19.11.2026 -
Macaulay Langstaff Millwall Actif 107 / 126 40% 2 18.11.2026 -
Gevorg Tarakhchyan Pyunik Actif 115 / 89 40% 1 24.09.2026 -
Magnus Lankhof Dahlby Stabaek Actif 95 / 87 40% 1 22.09.2026 -
Denzel Jubitana Neftchi Actif 127 / 108 40% 1 19.09.2026 -
Egor Bogomolskiy Zira Actif 102 / 95 40% 1 18.09.2026 -
Paul Ayongo Ararat-Armenia Actif 105 / 119 40% 1 16.09.2026 -
Matty Stevens AFC Wimbledon Actif 90 / 122 40% 1 14.09.2026 -
Steven Alfred Torpedo-BelAZ Actif 94 / 83 40% 1 14.09.2026 -
Mo Dauda Portimonense Actif 109 / 92 40% 1 13.09.2026 -
Will Swan Bradford City Actif 78 / 99 40% 1 08.09.2026 -
Valentin Costache Noah Actif 111 / 127 40% 1 08.09.2026 -
Jonel Désirè Van Actif 79 / 85 41% 1 31.08.2026 -
Allef Van Actif 82 / 98 41% 1 10.08.2026 -
Hamlet Mnatsakanyan Shirak Actif 92 / 88 41% 1 03.08.2026 -